Regional Weather Roundup
Issued by NWS

Home | Current Version | Previous Version | Graphics & Text | Print | Product List | Glossary On
Versions: 1 2 3 4 5 6 7 8 9 10 11 12 13 14 15 16 17 18 19 20 21 22 23 24 25 26 27
000
ASUS45 KCYS 202210
RWRWY

WYOMING REGIONAL WEATHER ROUNDUP
NATIONAL WEATHER SERVICE CHEYENNE WY
400 PM MDT THU JUL 20 2017

NOTE:  "FAIR" INDICATES FEW OR NO CLOUDS BELOW 12,000 FEET
WITH NO SIGNIFICANT WEATHER AND/OR OBSTRUCTIONS TO VISIBILITY.

WYZ001-202300-
YELLOWSTONE NATIONAL PARK

CITY           SKY/WX    TMP DP  RH WIND       PRES   REMARKS
LK YELLOWSTONE   N/A     61  50  67 CALM      30.33F
W YELLOWSTONE  NOT AVBL

$$
WYZ002>013-054>058-071-098>099-202300-
NORTHERN WYOMING

CITY           SKY/WX    TMP DP  RH WIND       PRES   REMARKS
JACKSON        PTSUNNY   63  57  82 NE14      30.22S
CODY           LGT RAIN  70  54  56 NW13G23   30.13R
GREYBULL       FAIR      86  52  30 NW16      29.91F
WORLAND        NOT AVBL
SHERIDAN       NOT AVBL
BUFFALO        NOT AVBL
GILLETTE       NOT AVBL
HULETT         FAIR      95  46  18 S14G20    29.96F HX  91
NEWCASTLE      FAIR      97  45  16 SE17G26   30.00F HX  93

$$
WYZ014>020-022>026-101>103-202300-
CENTRAL WYOMING

CITY           SKY/WX    TMP DP  RH WIND       PRES   REMARKS
BIG PINEY      FAIR      78  59  51 VRB5      30.20F
PINEDALE       LGT RAIN  73  48  40 S5G18     30.22F
DUBOIS         MOCLDY    75  43  31 NW18      30.21S
LANDER         FAIR      90  41  18 SW12G18   30.03F
RIVERTON       FAIR      93  46  19 MISG      30.02F
CASPER         FAIR      93  44  18 S10G21    30.04F
DOUGLAS        FAIR      96  49  20 E15G25    30.02F HX  93

$$
WYZ021-027>030-104>119-202300-
SOUTHERN WYOMING

CITY           SKY/WX    TMP DP  RH WIND       PRES   REMARKS
EVANSTON       PTSUNNY   82  50  32 W16G26    30.24F
KEMMERER         N/A     82  43  24 SW15G30   30.24F
FORT BRIDGER   FAIR      87  48  25 S12       30.25F
ROCK SPRINGS   FAIR      87  41  19 VRB5      30.20F
RAWLINS        FAIR      87  41  19 SW12G24   30.20F
SARATOGA       FAIR      88  45  22 W17G23    30.23F
LARAMIE        PTSUNNY   81  47  30 E9        30.24F
CHEYENNE       PTSUNNY   85  47  26 SW8       30.18S
TORRINGTON     FAIR      91  62  37 E15G22    30.02F HX  91
PINE BLUFFS    FAIR      90  50  25 SE8       30.12F

$$




USA.gov is the U.S. government's official web portal to all federal, state and local government web resources and services.